�������l�o���
Date,Time,MP-1(��Sv/h),MP-2(��Sv/h),MP-3(��Sv/h),MP-4(��Sv/h),MP-5(��Sv/h),MP-6(��Sv/h),MP-7(��Sv/h),MP-8(��Sv/h),����,����(m/s),���J
2024/01/02,00:00,0.506,0.768,0.480,0.966,0.693,0.310,0.555,0.520,�k��,0.6,��
2024/01/02,00:10,0.508,0.768,0.481,0.968,0.692,0.309,0.554,0.522,-,CALM,��
2024/01/02,00:20,0.508,0.768,0.480,0.966,0.690,0.311,0.556,0.521,�k��,1.4,��
2024/01/02,00:30,0.507,0.768,0.480,0.966,0.691,0.310,0.555,0.521,��,1.5,��
2024/01/02,00:40,0.508,0.768,0.480,0.965,0.693,0.309,0.555,0.521,��,1.8,��
2024/01/02,00:50,0.507,0.769,0.481,0.967,0.692,0.309,0.556,0.522,��,1.2,��
2024/01/02,01:00,0.505,0.768,0.480,0.967,0.691,0.310,0.557,0.522,��,0.9,��
2024/01/02,01:10,0.507,0.767,0.481,0.969,0.692,0.308,0.555,0.522,��,1.5,��
2024/01/02,01:20,0.507,0.767,0.480,0.968,0.690,0.310,0.556,0.522,���쐼,1.2,��
2024/01/02,01:30,0.507,0.766,0.481,0.966,0.691,0.308,0.556,0.521,���쐼,1.5,��
2024/01/02,01:40,0.505,0.768,0.482,0.967,0.690,0.309,0.554,0.523,���쐼,0.9,��
2024/01/02,01:50,0.506,0.768,0.479,0.967,0.692,0.310,0.555,0.521,���쐼,1.5,��
2024/01/02,02:00,0.506,0.767,0.480,0.968,0.691,0.309,0.555,0.520,���쐼,2.2,��
2024/01/02,02:10,0.507,0.767,0.480,0.967,0.691,0.309,0.556,0.520,���쐼,2.0,��
2024/01/02,02:20,0.507,0.767,0.481,0.967,0.692,0.309,0.555,0.522,���쐼,2.6,��
2024/01/02,02:30,0.506,0.769,0.481,0.967,0.692,0.309,0.554,0.521,���쐼,3.4,��
2024/01/02,02:40,0.507,0.767,0.481,0.968,0.692,0.309,0.557,0.521,�쐼,3.4,��
2024/01/02,02:50,0.507,0.767,0.480,0.969,0.692,0.310,0.554,0.522,��쐼,3.0,��
2024/01/02,03:00,0.505,0.767,0.480,0.968,0.692,0.309,0.555,0.520,��쐼,2.6,��
2024/01/02,03:10,0.507,0.764,0.482,0.967,0.692,0.309,0.556,0.522,��쐼,2.8,��
2024/01/02,03:20,0.506,0.766,0.482,0.965,0.690,0.309,0.555,0.522,��쐼,2.6,��
2024/01/02,03:30,0.506,0.767,0.481,0.967,0.691,0.310,0.555,0.522,��쐼,2.5,��
2024/01/02,03:40,0.507,0.768,0.480,0.966,0.690,0.309,0.555,0.521,��쐼,2.3,��
2024/01/02,03:50,0.506,0.768,0.481,0.967,0.690,0.310,0.555,0.521,�쐼,2.5,��
2024/01/02,04:00,0.506,0.767,0.480,0.968,0.691,0.309,0.554,0.521,�쐼,2.3,��
2024/01/02,04:10,0.506,0.765,0.481,0.966,0.691,0.308,0.555,0.522,�쐼,2.5,��
2024/01/02,04:20,0.506,0.766,0.479,0.967,0.691,0.310,0.556,0.520,�쐼,2.6,��
2024/01/02,04:30,0.505,0.765,0.481,0.967,0.690,0.310,0.555,0.522,�쐼,2.0,��
2024/01/02,04:40,0.506,0.766,0.480,0.967,0.692,0.310,0.554,0.521,�쐼,1.7,��
2024/01/02,04:50,0.505,0.765,0.481,0.965,0.691,0.309,0.556,0.521,���쐼,2.0,��
2024/01/02,05:00,0.506,0.766,0.480,0.968,0.691,0.309,0.556,0.521,�쐼,2.5,��
2024/01/02,05:10,0.507,0.767,0.481,0.968,0.690,0.310,0.557,0.521,��쐼,2.6,��
2024/01/02,05:20,0.506,0.767,0.481,0.968,0.691,0.310,0.555,0.522,��쐼,2.0,��
2024/01/02,05:30,0.507,0.765,0.481,0.969,0.692,0.311,0.557,0.523,�쐼,1.2,��
2024/01/02,05:40,0.506,0.765,0.480,0.966,0.692,0.309,0.555,0.522,�쐼,1.2,��
2024/01/02,05:50,0.507,0.767,0.481,0.968,0.691,0.310,0.555,0.520,��쐼,1.9,��
2024/01/02,06:00,0.506,0.765,0.480,0.966,0.688,0.310,0.555,0.522,��쐼,2.2,��
2024/01/02,06:10,0.505,0.766,0.480,0.966,0.689,0.308,0.556,0.523,��쐼,2.3,��
2024/01/02,06:20,0.507,0.767,0.480,0.966,0.688,0.309,0.555,0.523,�쐼,1.9,��
2024/01/02,06:30,0.506,0.767,0.480,0.966,0.689,0.310,0.556,0.522,���쐼,1.5,��
2024/01/02,06:40,0.505,0.765,0.480,0.968,0.691,0.309,0.556,0.521,���쐼,2.0,��
2024/01/02,06:50,0.506,0.765,0.480,0.967,0.690,0.311,0.557,0.522,�쐼,2.2,��
2024/01/02,07:00,0.506,0.767,0.479,0.965,0.689,0.309,0.556,0.520,�쐼,2.2,��
2024/01/02,07:10,0.506,0.767,0.480,0.966,0.690,0.309,0.555,0.520,�쐼,2.3,��
2024/01/02,07:20,0.506,0.767,0.480,0.968,0.690,0.310,0.556,0.522,�쐼,2.0,��
2024/01/02,07:30,0.507,0.768,0.481,0.970,0.691,0.309,0.557,0.522,�쐼,1.2,��
2024/01/02,07:40,0.505,0.766,0.482,0.967,0.689,0.309,0.556,0.522,��,1.2,��
2024/01/02,07:50,0.506,0.764,0.481,0.967,0.690,0.308,0.557,0.521,���쐼,0.6,��
2024/01/02,08:00,0.507,0.766,0.481,0.968,0.689,0.310,0.557,0.523,��,4.2,��
2024/01/02,08:10,0.506,0.768,0.481,0.966,0.687,0.309,0.557,0.522,�쐼,0.9,��
2024/01/02,08:20,0.506,0.770,0.482,0.969,0.690,0.309,0.557,0.522,���쐼,1.5,��
2024/01/02,08:30,0.507,0.769,0.481,0.967,0.689,0.310,0.556,0.523,���쐼,2.5,��
2024/01/02,08:40,0.507,0.768,0.483,0.968,0.691,0.310,0.556,0.522,���쐼,2.5,��
2024/01/02,08:50,0.509,0.767,0.481,0.967,0.692,0.312,0.557,0.521,�쐼,2.9,��
2024/01/02,09:00,0.506,0.770,0.481,0.969,0.691,0.310,0.558,0.523,���쐼,3.0,��
2024/01/02,09:10,0.506,0.768,0.482,0.968,0.691,0.311,0.557,0.522,�쐼,2.8,��
2024/01/02,09:20,0.511,0.770,0.482,0.968,0.693,0.310,0.558,0.523,�쐼,2.6,��
2024/01/02,09:30,0.509,0.770,0.483,0.969,0.691,0.312,0.558,0.524,�쐼,2.0,��
2024/01/02,09:40,0.510,0.770,0.482,0.969,0.693,0.312,0.558,0.522,�쐼,1.7,��
2024/01/02,09:50,0.510,0.769,0.484,0.969,0.693,0.311,0.560,0.522,���쐼,1.5,��
2024/01/02,10:00,0.508,0.768,0.483,0.969,0.692,0.312,0.558,0.523,���쐼,1.2,��
2024/01/02,10:10,0.511,0.768,0.484,0.972,0.693,0.312,0.557,0.523,�쐼,0.9,��
2024/01/02,10:20,0.510,0.769,0.484,0.970,0.691,0.312,0.557,0.523,���쐼,0.6,��
2024/01/02,10:30,0.511,0.771,0.485,0.969,0.694,0.312,0.557,0.524,-,CALM,��
2024/01/02,10:40,0.510,0.770,0.485,0.971,0.695,0.311,0.557,0.524,-,CALM,��
2024/01/02,10:50,0.511,0.771,0.484,0.971,0.693,0.313,0.558,0.523,��쓌,0.6,��
2024/01/02,11:00,0.510,0.773,0.484,0.969,0.694,0.313,0.557,0.524,��쓌,1.7,��
2024/01/02,11:10,0.511,0.770,0.485,0.971,0.696,0.312,0.556,0.524,���쓌,1.5,��
2024/01/02,11:20,0.512,0.770,0.485,0.972,0.695,0.311,0.557,0.523,�k��,1.9,��
2024/01/02,11:30,0.511,0.773,0.486,0.971,0.695,0.314,0.558,0.523,�k��,1.5,��
2024/01/02,11:40,0.513,0.773,0.485,0.969,0.696,0.313,0.557,0.523,��,2.2,��
2024/01/02,11:50,0.511,0.771,0.485,0.969,0.696,0.313,0.557,0.524,���k��,2.2,��
2024/01/02,12:00,0.511,0.770,0.485,0.970,0.696,0.313,0.557,0.524,���k��,2.3,��
2024/01/02,12:10,0.510,0.770,0.486,0.970,0.696,0.313,0.556,0.524,���k��,2.3,��
2024/01/02,12:20,0.511,0.767,0.485,0.972,0.695,0.313,0.556,0.525,��,2.3,��
2024/01/02,12:30,0.512,0.770,0.486,0.971,0.695,0.313,0.558,0.524,��,2.3,��
2024/01/02,12:40,0.510,0.770,0.485,0.972,0.695,0.314,0.558,0.524,���쓌,2.2,��
2024/01/02,12:50,0.511,0.769,0.486,0.970,0.696,0.313,0.557,0.525,��,1.7,��
2024/01/02,13:00,0.510,0.771,0.486,0.971,0.696,0.313,0.557,0.525,��,1.5,��
2024/01/02,13:10,0.510,0.770,0.485,0.969,0.694,0.314,0.555,0.525,��,1.4,��
2024/01/02,13:20,0.511,0.771,0.485,0.971,0.695,0.313,0.557,0.525,���쓌,1.7,��
2024/01/02,13:30,0.512,0.773,0.484,0.970,0.696,0.313,0.558,0.524,��,1.5,��
2024/01/02,13:40,0.512,0.772,0.483,0.970,0.694,0.312,0.558,0.525,�k��,0.6,��
2024/01/02,13:50,0.510,0.772,0.484,0.970,0.694,0.313,0.558,0.524,�k,0.8,��
2024/01/02,14:00,0.510,0.773,0.485,0.970,0.695,0.314,0.557,0.525,�k�k��,1.2,��
2024/01/02,14:10,0.512,0.773,0.483,0.971,0.694,0.312,0.557,0.523,�k,1.1,��
2024/01/02,14:20,0.511,0.772,0.484,0.971,0.694,0.312,0.557,0.524,�k�k��,1.9,��
2024/01/02,14:30,0.510,0.772,0.485,0.972,0.696,0.313,0.559,0.525,�k�k��,2.3,�L
2024/01/02,14:40,0.510,0.772,0.485,0.971,0.696,0.313,0.559,0.523,�k�k��,2.3,�L
2024/01/02,14:50,0.511,0.772,0.484,0.970,0.695,0.313,0.557,0.526,�k�k��,2.3,�L
2024/01/02,15:00,0.510,0.771,0.484,0.972,0.694,0.314,0.558,0.525,�k�k��,1.9,�L
2024/01/02,15:10,0.509,0.770,0.484,0.970,0.695,0.313,0.558,0.524,�k��,1.7,�L
2024/01/02,15:20,0.511,0.769,0.486,0.972,0.695,0.315,0.558,0.524,�k��,0.8,�L
2024/01/02,15:30,0.509,0.771,0.483,0.971,0.695,0.313,0.558,0.524,�k��,1.5,�L
2024/01/02,15:40,0.510,0.770,0.483,0.972,0.693,0.314,0.558,0.523,�k��,1.4,�L
2024/01/02,15:50,0.510,0.770,0.486,0.971,0.695,0.315,0.559,0.524,�k��,2.0,�L
2024/01/02,16:00,0.509,0.771,0.484,0.970,0.692,0.312,0.557,0.525,�k��,1.4,��
2024/01/02,16:10,0.508,0.771,0.483,0.970,0.692,0.313,0.557,0.523,�k��,1.9,�L
2024/01/02,16:20,0.509,0.769,0.484,0.970,0.692,0.312,0.557,0.524,�k�k��,2.8,�L
2024/01/02,16:30,0.507,0.769,0.483,0.970,0.690,0.313,0.557,0.522,�k�k��,2.6,�L
2024/01/02,16:40,0.507,0.766,0.482,0.967,0.689,0.313,0.556,0.523,�k�k��,2.0,�L
2024/01/02,16:50,0.506,0.764,0.481,0.968,0.689,0.313,0.557,0.523,�k�k��,2.8,��
2024/01/02,17:00,0.508,0.765,0.481,0.966,0.689,0.312,0.555,0.522,�k�k��,3.1,�L
2024/01/02,17:10,0.508,0.765,0.483,0.967,0.687,0.312,0.557,0.523,�k��,4.3,�L
2024/01/02,17:20,0.507,0.761,0.482,0.968,0.687,0.312,0.556,0.524,�k��,5.1,�L
2024/01/02,17:30,0.508,0.765,0.482,0.966,0.688,0.312,0.558,0.523,�k��,6.6,�L
2024/01/02,17:40,0.508,0.764,0.482,0.966,0.689,0.312,0.557,0.523,�k��,6.4,�L
2024/01/02,17:50,0.506,0.764,0.483,0.968,0.688,0.312,0.555,0.522,�k��,6.1,�L
2024/01/02,18:00,0.508,0.761,0.482,0.967,0.688,0.313,0.557,0.522,���k��,5.6,�L
2024/01/02,18:10,0.507,0.764,0.480,0.966,0.685,0.313,0.556,0.523,��,4.9,�L
2024/01/02,18:20,0.507,0.761,0.482,0.966,0.687,0.312,0.557,0.524,��,4.1,��
2024/01/02,18:30,0.505,0.762,0.480,0.966,0.688,0.312,0.559,0.522,��,4.7,��
2024/01/02,18:40,0.505,0.763,0.479,0.965,0.687,0.312,0.560,0.522,���k��,2.6,��
2024/01/02,18:50,0.505,0.763,0.480,0.965,0.687,0.312,0.556,0.522,���k��,3.9,��
2024/01/02,19:00,0.505,0.761,0.479,0.965,0.686,0.311,0.557,0.522,���k��,4.9,��
2024/01/02,19:10,0.504,0.762,0.479,0.963,0.685,0.311,0.556,0.522,���k��,5.3,��
2024/01/02,19:20,0.504,0.762,0.480,0.967,0.687,0.311,0.558,0.523,�k��,6.2,��
2024/01/02,19:30,0.504,0.762,0.479,0.965,0.685,0.310,0.558,0.521,�k��,5.8,��
2024/01/02,19:40,0.505,0.761,0.480,0.965,0.689,0.311,0.558,0.522,���k��,6.0,��
2024/01/02,19:50,0.505,0.763,0.478,0.964,0.687,0.312,0.558,0.522,�k��,6.1,��
2024/01/02,20:00,0.504,0.762,0.479,0.965,0.685,0.313,0.558,0.524,�k��,6.0,��
2024/01/02,20:10,0.504,0.763,0.480,0.966,0.684,0.310,0.556,0.522,�k��,6.1,��
2024/01/02,20:20,0.504,0.765,0.479,0.964,0.686,0.310,0.558,0.522,�k��,7.0,��
2024/01/02,20:30,0.504,0.762,0.479,0.964,0.685,0.311,0.557,0.521,�k��,5.9,��
2024/01/02,20:40,0.505,0.761,0.479,0.966,0.687,0.310,0.556,0.523,�k��,6.1,��
2024/01/02,20:50,0.503,0.761,0.479,0.968,0.686,0.312,0.558,0.523,�k��,6.3,��
2024/01/02,21:00,0.505,0.763,0.481,0.966,0.686,0.312,0.559,0.522,�k��,6.6,��
2024/01/02,21:10,0.505,0.763,0.481,0.968,0.686,0.311,0.558,0.522,�k��,5.3,��
2024/01/02,21:20,0.505,0.760,0.479,0.966,0.687,0.311,0.559,0.522,�k��,5.5,��
2024/01/02,21:30,0.506,0.763,0.479,0.967,0.687,0.311,0.558,0.523,�k�k��,5.7,��
2024/01/02,21:40,0.504,0.763,0.481,0.967,0.688,0.311,0.557,0.521,�k�k��,3.4,��
2024/01/02,21:50,0.505,0.764,0.482,0.966,0.687,0.310,0.557,0.521,�k�k��,3.2,��
2024/01/02,22:00,0.504,0.762,0.479,0.966,0.688,0.312,0.557,0.522,�k�k��,2.3,��
2024/01/02,22:10,0.505,0.764,0.480,0.964,0.688,0.311,0.557,0.522,�k�k��,1.5,��
2024/01/02,22:20,0.506,0.762,0.480,0.966,0.687,0.312,0.558,0.522,�k�k��,0.9,��
2024/01/02,22:30,0.504,0.761,0.480,0.966,0.686,0.311,0.558,0.521,�k��,0.9,��
2024/01/02,22:40,0.505,0.762,0.480,0.966,0.687,0.311,0.557,0.523,�k,2.0,��
2024/01/02,22:50,0.504,0.761,0.479,0.967,0.687,0.312,0.557,0.522,�k�k��,3.5,��
2024/01/02,23:00,0.504,0.761,0.478,0.965,0.686,0.312,0.556,0.521,�k�k��,2.9,��
2024/01/02,23:10,0.504,0.765,0.479,0.966,0.688,0.311,0.556,0.522,�k��,4.5,��
2024/01/02,23:20,0.503,0.761,0.480,0.966,0.686,0.312,0.557,0.521,�k�k��,3.3,��
2024/01/02,23:30,0.503,0.761,0.479,0.964,0.686,0.311,0.555,0.523,�k�k��,2.2,��
2024/01/02,23:40,0.504,0.763,0.479,0.965,0.687,0.311,0.558,0.522,�k��,1.2,��
2024/01/02,23:50,0.503,0.761,0.479,0.967,0.687,0.312,0.557,0.522,��,0.6,��
